Time,TemperatureF,DewpointF,PressureIn,WindDirection,WindDirectionDegrees,WindSpeedMPH,WindSpeedGustMPH,Humidity,HourlyPrecipIn,Conditions,Clouds,dailyrainin,SoftwareType,DateUTC
2013-02-19 00:01:00,38.3,23.6,30.14,North,359,0.0,6.0,55,0.00,,CLR,0.00,VWS V14.00,2013-02-19 05:01:00,
2013-02-19 00:16:00,37.8,23.5,30.15,North,0,0.0,5.0,56,0.00,,CLR,0.00,VWS V14.00,2013-02-19 05:16:00,
2013-02-19 00:31:00,36.9,23.1,30.15,North,0,0.0,2.0,57,0.00,,CLR,0.00,VWS V14.00,2013-02-19 05:31:00,
2013-02-19 00:46:00,36.0,23.5,30.15,North,359,0.0,2.0,60,0.00,,CLR,0.00,VWS V14.00,2013-02-19 05:46:00,
2013-02-19 01:01:00,35.5,23.8,30.15,North,0,0.0,3.0,62,0.00,,CLR,0.00,VWS V14.00,2013-02-19 06:01:00,
2013-02-19 01:16:00,35.2,23.5,30.14,North,0,0.0,2.0,62,0.00,,CLR,0.00,VWS V14.00,2013-02-19 06:16:00,
2013-02-19 01:31:00,35.2,23.5,30.13,North,0,0.0,4.0,62,0.00,,CLR,0.00,VWS V14.00,2013-02-19 06:31:00,
2013-02-19 01:46:00,35.0,23.7,30.13,North,0,0.0,1.0,63,0.00,,CLR,0.00,VWS V14.00,2013-02-19 06:46:00,
2013-02-19 02:01:00,35.0,23.7,30.12,North,0,0.0,2.0,63,0.00,,CLR,0.00,VWS V14.00,2013-02-19 07:01:00,
2013-02-19 02:16:00,35.2,23.9,30.12,North,0,0.0,5.0,63,0.00,,CLR,0.00,VWS V14.00,2013-02-19 07:16:00,
2013-02-19 02:31:00,34.9,23.6,30.09,North,0,0.0,2.0,63,0.00,,CLR,0.00,VWS V14.00,2013-02-19 07:31:00,
2013-02-19 02:46:00,34.6,23.3,30.08,North,0,0.0,3.0,63,0.00,,CLR,0.00,VWS V14.00,2013-02-19 07:46:00,
2013-02-19 03:01:00,34.3,23.4,30.08,North,0,0.0,3.0,64,0.00,,CLR,0.00,VWS V14.00,2013-02-19 08:01:00,
2013-02-19 03:16:00,34.3,23.0,30.06,North,0,0.0,2.0,63,0.00,,CLR,0.00,VWS V14.00,2013-02-19 08:16:00,
2013-02-19 03:31:00,34.7,23.0,30.07,North,359,0.0,3.0,62,0.00,,CLR,0.00,VWS V14.00,2013-02-19 08:31:00,
2013-02-19 03:46:00,34.4,22.7,30.05,North,0,0.0,2.0,62,0.00,,CLR,0.00,VWS V14.00,2013-02-19 08:46:00,
2013-02-19 04:01:00,33.8,22.5,30.06,North,0,2.0,3.0,63,0.00,,CLR,0.00,VWS V14.00,2013-02-19 09:01:00,
2013-02-19 04:16:00,33.7,22.8,30.05,North,0,0.0,3.0,64,0.00,,FEW120,0.00,VWS V14.00,2013-02-19 09:16:00,
2013-02-19 04:31:00,33.4,22.9,30.04,North,0,0.0,1.0,65,0.00,,FEW120,0.00,VWS V14.00,2013-02-19 09:31:00,
2013-02-19 04:46:00,33.7,23.2,30.04,North,0,0.0,3.0,65,0.00,,FEW120,0.00,VWS V14.00,2013-02-19 09:46:00,
2013-02-19 05:01:00,34.0,23.1,30.04,North,0,1.0,5.0,64,0.00,,CLR,0.00,VWS V14.00,2013-02-19 10:01:00,
2013-02-19 05:16:00,34.0,23.5,30.04,North,0,0.0,2.0,65,0.00,,CLR,0.00,VWS V14.00,2013-02-19 10:16:00,
2013-02-19 05:31:00,34.3,23.8,30.04,North,0,2.0,3.0,65,0.00,,CLR,0.00,VWS V14.00,2013-02-19 10:31:00,
2013-02-19 05:46:00,34.7,23.8,30.03,North,0,2.0,3.0,64,0.00,,CLR,0.00,VWS V14.00,2013-02-19 10:46:00,
2013-02-19 06:01:00,35.3,23.6,30.03,North,0,1.0,6.0,62,0.00,,BKN110,0.00,VWS V14.00,2013-02-19 11:01:00,
2013-02-19 06:16:00,35.9,24.2,30.03,North,0,2.0,9.0,62,0.00,,BKN110,0.00,VWS V14.00,2013-02-19 11:16:00,
2013-02-19 06:31:00,36.5,24.3,30.03,North,0,3.0,10.0,61,0.00,,BKN110,0.00,VWS V14.00,2013-02-19 11:31:00,
2013-02-19 06:46:00,36.8,24.6,30.03,North,0,0.0,5.0,61,0.00,,BKN110,0.00,VWS V14.00,2013-02-19 11:46:00,
2013-02-19 07:01:00,37.0,25.2,30.02,North,357,0.0,7.0,62,0.00,,BKN110,0.00,VWS V14.00,2013-02-19 12:01:00,
2013-02-19 07:16:00,37.2,25.4,30.02,North,0,0.0,5.0,62,0.00,,BKN110,0.00,VWS V14.00,2013-02-19 12:16:00,
2013-02-19 07:31:00,37.3,25.1,30.03,North,0,0.0,5.0,61,0.00,,BKN110,0.00,VWS V14.00,2013-02-19 12:31:00,
2013-02-19 07:46:00,37.6,25.8,30.02,North,357,1.0,3.0,62,0.00,,BKN110,0.00,VWS V14.00,2013-02-19 12:46:00,
2013-02-19 08:01:00,37.8,26.0,30.02,North,359,0.0,3.0,62,0.00,,BKN110,0.00,VWS V14.00,2013-02-19 13:01:00,
2013-02-19 08:16:00,37.9,27.2,30.02,North,0,0.0,2.0,65,0.00,,BKN110,0.00,VWS V14.00,2013-02-19 13:16:00,
2013-02-19 08:31:00,37.6,29.1,30.03,North,0,1.0,5.0,71,0.00,,OVC060,0.00,VWS V14.00,2013-02-19 13:31:00,
2013-02-19 08:46:00,37.0,30.8,30.03,North,0,0.0,6.0,78,0.02,,OVC060,0.02,VWS V14.00,2013-02-19 13:46:00,
2013-02-19 09:01:00,36.8,31.8,30.02,West,281,0.0,3.0,82,0.04,,RA,0.04,VWS V14.00,2013-02-19 14:01:00,
2013-02-19 09:16:00,36.8,32.4,30.01,WNW,282,0.0,1.0,84,0.07,,RA,0.07,VWS V14.00,2013-02-19 14:16:00,
2013-02-19 09:31:00,36.9,33.1,30.00,WNW,295,0.0,0.0,86,0.11,,RA,0.11,VWS V14.00,2013-02-19 14:31:00,
2013-02-19 09:46:00,36.8,33.3,29.98,North,0,0.0,3.0,87,0.13,,RA,0.13,VWS V14.00,2013-02-19 14:46:00,
2013-02-19 10:01:00,37.0,34.1,29.98,WSW,257,0.0,6.0,89,0.13,,-RA,0.15,VWS V14.00,2013-02-19 15:01:00,
2013-02-19 10:16:00,37.2,34.3,29.98,North,0,2.0,3.0,89,0.11,,-RA,0.15,VWS V14.00,2013-02-19 15:16:00,
2013-02-19 10:31:00,37.2,34.3,29.97,SW,223,0.0,4.0,89,0.09,,-RA,0.16,VWS V14.00,2013-02-19 15:31:00,
2013-02-19 10:46:00,37.5,34.8,29.96,SW,223,0.0,2.0,90,0.05,,-RA,0.16,VWS V14.00,2013-02-19 15:46:00,
2013-02-19 11:01:00,37.8,35.1,29.96,SW,223,0.0,2.0,90,0.04,,-RA,0.17,VWS V14.00,2013-02-19 16:01:00,
2013-02-19 11:16:00,37.8,35.1,29.95,SW,223,0.0,2.0,90,0.02,,-RA,0.17,VWS V14.00,2013-02-19 16:16:00,
2013-02-19 11:31:00,38.0,35.6,29.93,SW,223,2.0,2.0,91,0.02,,-RA,0.17,VWS V14.00,2013-02-19 16:31:00,
2013-02-19 11:46:00,38.2,35.8,29.93,SW,223,0.0,5.0,91,0.01,,-RA,0.17,VWS V14.00,2013-02-19 16:46:00,
2013-02-19 12:01:00,38.8,36.4,29.92,SW,236,6.0,6.0,91,0.01,,-RA,0.17,VWS V14.00,2013-02-19 17:01:00,
2013-02-19 12:16:00,39.5,37.4,29.90,WSW,244,3.0,8.0,92,0.01,,-RA,0.18,VWS V14.00,2013-02-19 17:16:00,
2013-02-19 12:31:00,40.2,38.1,29.89,SW,230,2.0,6.0,92,0.02,,-RA,0.19,VWS V14.00,2013-02-19 17:31:00,
2013-02-19 12:46:00,40.5,38.4,29.88,SW,223,0.0,10.0,92,0.02,,-RA,0.19,VWS V14.00,2013-02-19 17:46:00,
2013-02-19 13:01:00,41.5,39.3,29.86,SW,236,1.0,6.0,92,0.02,,,0.19,VWS V14.00,2013-02-19 18:01:00,
2013-02-19 13:16:00,42.3,40.4,29.85,WSW,237,1.0,5.0,93,0.02,,,0.19,VWS V14.00,2013-02-19 18:16:00,
2013-02-19 13:31:00,42.8,40.6,29.84,SSW,202,2.0,8.0,92,0.01,,,0.19,VWS V14.00,2013-02-19 18:31:00,
2013-02-19 13:46:00,43.2,41.0,29.83,SW,229,3.0,10.0,92,0.00,,,0.19,VWS V14.00,2013-02-19 18:46:00,
2013-02-19 14:01:00,43.5,41.3,29.83,WSW,248,0.0,10.0,92,0.00,,,0.19,VWS V14.00,2013-02-19 19:01:00,
2013-02-19 14:16:00,43.8,41.3,29.83,SSW,202,6.0,10.0,91,0.00,,,0.19,VWS V14.00,2013-02-19 19:16:00,
2013-02-19 14:31:00,43.9,41.2,29.83,SW,229,2.0,11.0,90,0.00,,,0.19,VWS V14.00,2013-02-19 19:31:00,
2013-02-19 14:46:00,44.1,41.4,29.82,WSW,247,7.0,10.0,90,0.00,,,0.19,VWS V14.00,2013-02-19 19:46:00,
2013-02-19 15:01:00,44.3,41.3,29.82,WSW,250,6.0,8.0,89,0.00,,OVC005,0.19,VWS V14.00,2013-02-19 20:01:00,
2013-02-19 15:16:00,44.5,41.5,29.81,WSW,253,2.0,10.0,89,0.00,,OVC005,0.19,VWS V14.00,2013-02-19 20:16:00,
2013-02-19 15:31:00,44.8,41.5,29.81,WSW,253,0.0,6.0,88,0.00,,OVC005,0.19,VWS V14.00,2013-02-19 20:31:00,
2013-02-19 15:46:00,45.1,41.8,29.81,SW,220,6.0,7.0,88,0.00,,OVC005,0.19,VWS V14.00,2013-02-19 20:46:00,
2013-02-19 16:01:00,45.4,41.8,29.80,WSW,237,5.0,10.0,87,0.00,,OVC005,0.19,VWS V14.00,2013-02-19 21:01:00,
2013-02-19 16:16:00,45.7,42.1,29.81,WSW,240,4.0,7.0,87,0.00,,OVC005,0.19,VWS V14.00,2013-02-19 21:16:00,
2013-02-19 16:31:00,45.7,41.5,29.81,SW,230,3.0,7.0,85,0.00,,OVC005,0.19,VWS V14.00,2013-02-19 21:31:00,
2013-02-19 16:46:00,45.8,41.5,29.81,WSW,243,1.0,8.0,85,0.00,,OVC005,0.19,VWS V14.00,2013-02-19 21:46:00,
2013-02-19 17:01:00,45.7,41.2,29.81,West,261,2.0,11.0,84,0.00,,SCT014,0.19,VWS V14.00,2013-02-19 22:01:00,
2013-02-19 17:16:00,45.5,41.0,29.82,SW,227,3.0,7.0,84,0.00,,SCT014,0.19,VWS V14.00,2013-02-19 22:16:00,
2013-02-19 17:31:00,45.2,40.7,29.82,SW,236,5.0,10.0,84,0.00,,SCT014,0.19,VWS V14.00,2013-02-19 22:31:00,
2013-02-19 17:46:00,45.2,40.7,29.83,SW,236,5.0,5.0,84,0.00,,SCT014,0.19,VWS V14.00,2013-02-19 22:46:00,
2013-02-19 18:01:00,45.2,40.7,29.84,SW,236,5.0,5.0,84,0.00,,SCT014,0.19,VWS V14.00,2013-02-19 23:01:00,
2013-02-19 18:16:00,45.2,40.7,29.85,SW,236,5.0,5.0,84,0.00,,SCT014,0.19,VWS V14.00,2013-02-19 23:16:00,
2013-02-19 18:31:00,45.2,40.7,29.86,SW,236,5.0,5.0,84,0.00,,SCT014,0.19,VWS V14.00,2013-02-19 23:31:00,
2013-02-19 18:46:00,45.2,40.7,29.86,SW,236,5.0,5.0,84,0.00,,SCT014,0.19,VWS V14.00,2013-02-19 23:46:00,
2013-02-19 19:01:00,45.2,40.7,29.87,SW,236,5.0,5.0,84,0.00,,SCT060,0.19,VWS V14.00,2013-02-20 00:01:00,
2013-02-19 19:16:00,45.2,40.7,29.88,SW,236,5.0,5.0,84,0.00,,SCT060,0.19,VWS V14.00,2013-02-20 00:16:00,
2013-02-19 19:31:00,45.2,40.7,29.88,SW,236,5.0,5.0,84,0.00,,SCT060,0.19,VWS V14.00,2013-02-20 00:31:00,
2013-02-19 19:46:00,45.2,40.7,29.88,SW,236,5.0,5.0,84,0.00,,SCT060,0.19,VWS V14.00,2013-02-20 00:46:00,
2013-02-19 20:01:00,45.2,40.7,29.88,SW,236,5.0,5.0,84,0.00,,SCT060,0.19,VWS V14.00,2013-02-20 01:01:00,
2013-02-19 20:16:00,45.2,40.7,29.89,SW,236,5.0,5.0,84,0.00,,FEW060,0.19,VWS V14.00,2013-02-20 01:16:00,
2013-02-19 20:31:00,45.2,40.7,29.89,SW,236,5.0,5.0,84,0.00,,FEW060,0.19,VWS V14.00,2013-02-20 01:31:00,
2013-02-19 20:46:00,45.2,40.7,29.89,SW,236,5.0,5.0,84,0.00,,FEW060,0.19,VWS V14.00,2013-02-20 01:46:00,
2013-02-19 21:01:00,45.2,40.7,29.89,SW,236,5.0,5.0,84,0.00,,CLR,0.19,VWS V14.00,2013-02-20 02:01:00,
2013-02-19 21:16:00,45.2,40.7,29.90,SW,236,5.0,5.0,84,0.00,,CLR,0.19,VWS V14.00,2013-02-20 02:16:00,
2013-02-19 21:31:00,39.8,35.4,29.90,NW,320,0.0,5.0,84,0.00,,CLR,0.19,VWS V14.00,2013-02-20 02:31:00,
2013-02-19 21:46:00,39.8,35.4,29.91,NW,320,0.0,0.0,84,0.00,,CLR,0.19,VWS V14.00,2013-02-20 02:46:00,
2013-02-19 22:01:00,37.3,34.9,29.92,SW,226,1.0,2.0,91,0.00,,CLR,0.19,VWS V14.00,2013-02-20 03:01:00,
2013-02-19 22:16:00,37.0,32.6,29.92,SW,224,0.0,3.0,84,0.00,,CLR,0.19,VWS V14.00,2013-02-20 03:16:00,
2013-02-19 22:31:00,37.9,30.4,29.92,SW,227,1.0,3.0,74,0.00,,CLR,0.19,VWS V14.00,2013-02-20 03:31:00,
2013-02-19 22:46:00,39.3,29.3,29.92,North,349,0.0,6.0,67,0.00,,CLR,0.19,VWS V14.00,2013-02-20 03:46:00,
2013-02-19 23:01:00,39.8,24.5,29.92,North,353,0.0,3.0,54,0.00,,CLR,0.19,VWS V14.00,2013-02-20 04:01:00,
2013-02-19 23:16:00,39.5,24.7,29.92,North,352,0.0,6.0,55,0.00,,CLR,0.19,VWS V14.00,2013-02-20 04:16:00,
2013-02-19 23:31:00,38.6,23.8,29.92,North,352,0.0,2.0,55,0.00,,CLR,0.19,VWS V14.00,2013-02-20 04:31:00,
2013-02-19 23:46:00,38.0,22.9,29.93,North,0,3.0,6.0,54,0.00,,CLR,0.19,VWS V14.00,2013-02-20 04:46:00,